SVYATOBOR 1 (RS60S) (57187 NORAD) Tracking and Keplerian Element Data

This shows tracking and keplerian element data for the satellite.

Feedback or suggestion? Click here.




ElementValue
Catalog57187
NameSVYATOBOR 1 (RS60S)
Epoch Orbit7129
Epoch Day286.83765424
Epoch Year2024
RAAN338.9577
Inclination97.6011
Eccentricity0.0014038
Argument of Perigee68.3789
Mean Anonmoly291.8936
Mean Motion15.12315807
Decay Rate0.00016998
L11 57187U 23091X 24286.83765424 .00016998 00000+0 98135-3 0 9995
L22 57187 97.6011 338.9577 0014038 68.3789 291.8936 15.12315807 71293



Live tracking and technical data element details for SVYATOBOR 1 (RS60S) (NORAD 57187). SVYATOBOR 1 (RS60S) can be tracked NOW for your location showing map with azimuth and elevation plus other details from your city location.







IsCatalogInMostPopularTable: catalog: 57187, numindb: 22
Update: records affected: 1



GetName: 57187 SVYATOBOR 1 (RS60S)

Hit Count: updated at: Fri, 24 Jan 2025 23:46:15 GMT